Regional Weather Roundup
Issued by NWS

Home | Current Version | Previous Version | Graphics & Text | Print | Product List | Glossary On
Versions: 1 2 3 4 5 6 7 8 9 10 11 12 13 14 15 16 17 18 19 20 21 22 23 24 25 26 27 28 29 30 31 32 33 34 35 36 37 38 39 40 41 42 43 44 45 46 47 48 49 50
000
ASUS43 KDMX 271507
RWRIA

WEATHER ROUNDUP FOR IOWA
NATIONAL WEATHER SERVICE DES MOINES IA
1000 AM CDT FRI MAR 27 2015

NOTE: "FAIR" INDICATES FEW OR NO CLOUDS BELOW 12,000 FEET WITH NO
SIGNIFICANT WEATHER AND/OR OBSTRUCTIONS TO VISIBILITY.

* - THESE STATIONS ARE NOT NWS STATIONS...THUS NOT UNDER NWS
QUALITY CONTROL.  THEY ALSO DO NOT REPORT WEATHER SUCH
AS PRECIPITATION OR FOG.

IAZ001>003-012>014-020>022-031>034-043>046-271600-
   NORTHWEST IOWA

CITY           SKY/WX    TMP DP  RH WIND       PRES   REMARKS
CARROLL *      SUNNY     28  16  59 CALM      30.27F
CHEROKEE *     SUNNY     27  16  63 CALM      30.28S
DENISON *      SUNNY     27  18  69 CALM      30.26S
LE MARS *      SUNNY     25  16  68 CALM      30.29F
ORANGE CITY *  SUNNY     27  12  54 CALM      30.26F
SHELDON *      SUNNY     25  16  68 CALM      30.25F
SIOUX CITY     MOSUNNY   28  15  58 N5        30.30S WCI  23
SPENCER        SUNNY     27  15  61 NE3       30.27
STORM LAKE *   SUNNY     27  14  59 NE5       30.26S WCI  21
$$

IAZ055>058-069>071-079>083-090>094-271600-
   SOUTHWEST IOWA

CITY           SKY/WX    TMP DP  RH WIND       PRES   REMARKS
ATLANTIC *     SUNNY     28  19  69 N5        30.28S WCI  23
AUDUBON *      SUNNY     28  21  74 N6        30.27S WCI  22
CLARINDA *     SUNNY     30  23  74 CALM      30.31S
COUNCIL BLFS * SUNNY     28  21  74 N5        30.28F WCI  23
CRESTON *      SUNNY     28  21  74 N8        30.27R WCI  20
HARLAN  *      SUNNY     28  23  80 VRB5      30.31S WCI  23
LAMONI         SUNNY     32  21  64 N12       30.25S WCI  23
RED OAK *      SUNNY     28  21  74 NE7       30.29F WCI  21
SHENANDOAH *   SUNNY     30  21  69 N7        30.31S WCI  23
$$

IAZ047>049-059>061-072>074-084-271600-
   CENTRAL IOWA

CITY           SKY/WX    TMP DP  RH WIND       PRES   REMARKS
AMES           SUNNY     31  15  52 N9        30.27R WCI  23
ANKENY *       SUNNY     30  16  55 N9        30.28R WCI  22
CHARITON *     SUNNY     30  18  59 N12       30.25R WCI  21
DES MOINES     MOSUNNY   33  15  47 N9        30.27S WCI  25
GRINNELL*      SUNNY     30  16  55 NE9       30.26R WCI  22
KNOXVILLE *    SUNNY     32  18  55 N13       30.24S WCI  22
MARSHALLTOWN   SUNNY     29  15  56 NE9       30.26R WCI  20
PELLA *        SUNNY     32  23  69 NE7       30.27S WCI  26
PERRY *          N/A     30  19  64 NE5       30.27F WCI  25
$$

IAZ004>006-015-016-023>025-035-036-271600-
   NORTH CENTRAL IOWA

CITY           SKY/WX    TMP DP  RH WIND       PRES   REMARKS
ALGONA *       SUNNY     27  14  59 CALM      30.27F
CLARION *      SUNNY     28  10  47 NE6       30.26S WCI  22
ESTHERVILLE    SUNNY     25  13  60 CALM      30.25F
FORT DODGE *   SUNNY     28  16  59 N5        30.28S WCI  23
MASON CITY     SUNNY     27  13  55 CALM      30.27R
FOREST CITY *  SUNNY     27  12  54 NE5       30.26R WCI  21
IOWA FALLS *     N/A     28  12  50 NE6       30.26S WCI  22
$$

IAZ007>011-017>019-026>030-037>042-050>054-066-271600-
   NORTHEAST IOWA

CITY           SKY/WX    TMP DP  RH WIND       PRES   REMARKS
CEDAR RAPIDS   SUNNY     28   6  39 NE13      30.24R WCI  17
CHARLES CITY * SUNNY     25   9  50 NE8       30.26S WCI  16
CLINTON *      SUNNY     27   7  43 NE14      30.26S WCI  15
DECORAH *      SUNNY     23   7  50 N9        30.23F WCI  13
DUBUQUE        SUNNY     25   6  44 N16       30.22R WCI  12
MONTICELLO *   SUNNY     27   7  43 NE12G21   30.25R WCI  16
OELWEIN *      SUNNY     27   9  46 N10G18    30.25S WCI  17
WATERLOO       SUNNY     28   9  44 N12       30.26S WCI  18
$$

IAZ064-065-067-068-078-271600-
   EAST CENTRAL IOWA

CITY           SKY/WX    TMP DP  RH WIND       PRES   REMARKS
DAVENPORT      SUNNY     28   7  41 N16       30.24R WCI  16
IOWA CITY      SUNNY     29   7  39 NE12      30.27R WCI  19
MT. PLEASANT * SUNNY     30  14  51 N14       30.23R WCI  20
MUSCATINE *    SUNNY     30   9  40 NE17      30.25S WCI  18
QUAD CITIES    SUNNY     28   8  43 N14       30.23R WCI  17
$$

IAZ062-063-075>077-085>089-095>099-271600-
   SOUTHEAST IOWA

CITY           SKY/WX    TMP DP  RH WIND       PRES   REMARKS
BURLINGTON     MOSUNNY   32  19  58 N15       30.22R WCI  22
FAIRFIELD *    MIX PCPN  30  12  47 NE12      30.25R WCI  21
FORT MADISON * PTSUNNY   32  19  59 NE9       30.22R WCI  24
KEOKUK *       MOSUNNY   36  21  55 N8G15     30.21R WCI  29
OSKALOOSA *      N/A     32  19  59 NE12      30.25S WCI  23
CENTERVILLE *  SUNNY     32  18  55 N10       30.25R WCI  24
OTTUMWA        SUNNY     32  20  61 NE10      30.24R WCI  24
WASHINGTON *   SUNNY     30  12  47 NE14      30.25R WCI  20
$$

ABBREVIATIONS USED IN REMARKS
   TC - TEMPERATURES IN CELSIUS
  WCI - WIND CHILL INDEX
   HX - HEAT INDEX
  VSB - VISIBILITY
$$



USA.gov is the U.S. government's official web portal to all federal, state and local government web resources and services.